Change the Weather History Date:

Sunday, December 30, 2012

  Actual Average Record
Temperature  
Mean Temperature 46 °F -  
Max Temperature 55 °F 55 °F 55 °F (2012)
Min Temperature 37 °F 24 °F 21 °F (2014)
Degree Days  
Heating Degree Days 19    
Moisture  
Dew Point 21 °F    
Average Humidity 42    
Maximum Humidity 93    
Minimum Humidity 28    
Precipitation  
Precipitation 0.01 in - - ()
Sea Level Pressure  
Sea Level Pressure 29.92 in    
Wind  
Wind Speed 13 mph (SSE)    
Max Wind Speed 24 mph    
Max Gust Speed 31 mph    
Visibility 10 miles    
Events      
Averages and records for this station are not official NWS values.
T = Trace of Precipitation, MM = Missing Value Source: NWS Daily Summary

Daily Weather History Graph

Daily Weather History Graph

Search for Another Location

Airport or City:

Trip Planner

Search our weather history database for the weather conditions in past years. The results will help you decide how hot, cold, wet, or windy it might be!

Date:

Astronomy

Dec. 30, 2012 Rise Set
Actual Time 7:15 AM MST 5:19 PM MST
Civil Twilight 6:48 AM MST 5:46 PM MST
Nautical Twilight 6:18 AM MST 6:17 PM MST
Astronomical Twilight 5:48 AM MST 6:47 PM MST
Moon 7:44 PM MST (12/30) 8:34 AM MST (12/30)
Length of Visible Light 10h 57m
Length of Day
10h 03m
Waning Gibbous, 95% of the Moon is Illuminated
Dec 30
Waning Gibbous
Jan 4
Last Quarter
Jan 11
New
Jan 18
First Quarter
Jan 26
Full

Hourly Weather History & Observations

Time (MST) Temp. Windchill Dew Point Humidity Pressure Visibility Wind Dir Wind Speed Gust Speed Precip Events Conditions
12:15 AM 41.0 °F 34.3 °F 14.0 °F 33% 30.03 in 10.0 mi SSE 11.5 mph - N/A   Clear
12:35 AM 41.0 °F 34.3 °F 14.0 °F 33% 30.03 in 10.0 mi SE 11.5 mph - N/A   Clear
12:55 AM 41.0 °F 34.3 °F 14.0 °F 33% 30.03 in 10.0 mi SSE 11.5 mph - N/A   Clear
1:15 AM 39.2 °F 32.0 °F 14.0 °F 36% 30.02 in 10.0 mi SSE 11.5 mph - N/A   Clear
1:35 AM 39.2 °F 32.0 °F 14.0 °F 36% 30.02 in 10.0 mi SSE 11.5 mph - N/A   Clear
1:55 AM 37.4 °F 30.3 °F 14.0 °F 38% 30.01 in 10.0 mi South 10.4 mph - N/A   Clear
2:15 AM 37.4 °F 29.3 °F 14.0 °F 38% 30.00 in 10.0 mi SSE 12.7 mph - N/A   Clear
2:35 AM 37.4 °F 29.8 °F 14.0 °F 38% 30.00 in 10.0 mi SSE 11.5 mph - N/A   Clear
2:55 AM 39.2 °F 32.0 °F 14.0 °F 36% 30.00 in 10.0 mi SSE 11.5 mph 17.3 mph N/A   Clear
3:15 AM 39.2 °F 32.0 °F 14.0 °F 36% 29.99 in 10.0 mi SSE 11.5 mph - N/A   Clear
3:35 AM 37.4 °F 28.9 °F 14.0 °F 38% 29.99 in 10.0 mi SSE 13.8 mph - N/A   Clear
3:55 AM 37.4 °F 28.9 °F 14.0 °F 38% 29.99 in 10.0 mi SSE 13.8 mph - N/A   Clear
4:15 AM 37.4 °F 28.9 °F 14.0 °F 38% 29.97 in 10.0 mi SSE 13.8 mph - N/A   Clear
4:35 AM 37.4 °F 28.5 °F 14.0 °F 38% 29.97 in 10.0 mi SSE 15.0 mph - N/A   Clear
4:55 AM 37.4 °F 28.2 °F 14.0 °F 38% 29.97 in 10.0 mi SSE 16.1 mph - N/A   Clear
5:15 AM 37.4 °F 28.5 °F 14.0 °F 38% 29.97 in 10.0 mi SSE 15.0 mph - N/A   Clear
5:35 AM 39.2 °F 30.2 °F 14.0 °F 36% 29.97 in 10.0 mi SSE 17.3 mph 21.9 mph N/A   Clear
5:55 AM 37.4 °F 28.2 °F 14.0 °F 38% 29.97 in 10.0 mi SSE 16.1 mph - N/A   Clear
6:15 AM 37.4 °F 28.5 °F 14.0 °F 38% 29.97 in 10.0 mi SSE 15.0 mph - N/A   Clear
6:35 AM 37.4 °F 28.2 °F 14.0 °F 38% 29.97 in 10.0 mi SSE 16.1 mph 21.9 mph N/A   Clear
6:55 AM 37.4 °F 27.8 °F 14.0 °F 38% 29.97 in 10.0 mi SSE 17.3 mph - N/A   Scattered Clouds
7:15 AM 37.4 °F 28.5 °F 14.0 °F 38% 29.97 in 10.0 mi SSE 15.0 mph - N/A   Clear
7:35 AM 37.4 °F 28.2 °F 14.0 °F 38% 29.97 in 10.0 mi SSE 16.1 mph - N/A   Clear
7:55 AM 37.4 °F 28.2 °F 15.8 °F 41% 29.98 in 10.0 mi SSE 16.1 mph - N/A   Clear
8:15 AM 39.2 °F 30.2 °F 15.8 °F 39% 29.98 in 10.0 mi SSE 17.3 mph - N/A   Clear
8:35 AM 41.0 °F 32.5 °F 15.8 °F 36% 29.99 in 10.0 mi SSE 17.3 mph - N/A   Clear
8:55 AM 41.0 °F 32.8 °F 15.8 °F 36% 29.99 in 10.0 mi SSE 16.1 mph - N/A   Clear
9:15 AM 41.0 °F 32.5 °F 17.6 °F 39% 29.99 in 10.0 mi SSE 17.3 mph - N/A   Scattered Clouds
9:35 AM 44.6 °F 36.6 °F 17.6 °F 34% 29.99 in 10.0 mi SE 19.6 mph 25.3 mph N/A   Scattered Clouds
9:55 AM 44.6 °F 36.6 °F 17.6 °F 34% 29.99 in 10.0 mi ESE 19.6 mph 24.2 mph N/A   Clear
10:15 AM 44.6 °F 37.4 °F 17.6 °F 34% 29.99 in 10.0 mi ESE 16.1 mph 24.2 mph N/A   Clear
10:35 AM 46.4 °F 39.8 °F 17.6 °F 32% 29.99 in 10.0 mi SE 16.1 mph 23.0 mph N/A   Clear
10:55 AM 46.4 °F 39.2 °F 17.6 °F 32% 29.98 in 10.0 mi ESE 18.4 mph 23.0 mph N/A   Scattered Clouds
11:15 AM 46.4 °F 39.8 °F 17.6 °F 32% 29.97 in 10.0 mi SE 16.1 mph 23.0 mph N/A   Clear
11:35 AM 48.2 °F - 17.6 °F 30% 29.95 in 10.0 mi SE 16.1 mph 21.9 mph N/A   Clear
11:55 AM 50.0 °F - 17.6 °F 28% 29.94 in 10.0 mi SE 15.0 mph 24.2 mph N/A   Clear
12:15 PM 50.0 °F - 17.6 °F 28% 29.93 in 10.0 mi SSE 16.1 mph 20.7 mph N/A   Clear
12:35 PM 51.8 °F - 19.4 °F 28% 29.91 in 10.0 mi SSE 12.7 mph 18.4 mph N/A   Scattered Clouds
12:55 PM 51.8 °F - 19.4 °F 28% 29.90 in 10.0 mi SSE 10.4 mph - N/A   Scattered Clouds
1:15 PM 51.8 °F - 19.4 °F 28% 29.90 in 10.0 mi SE 12.7 mph - N/A   Mostly Cloudy
1:35 PM 51.8 °F - 19.4 °F 28% 29.88 in 10.0 mi ESE 11.5 mph 17.3 mph N/A   Overcast
1:55 PM 51.8 °F - 19.4 °F 28% 29.86 in 10.0 mi SSE 9.2 mph - N/A   Overcast
2:15 PM 51.8 °F - 21.2 °F 30% 29.84 in 10.0 mi ESE 10.4 mph - N/A   Overcast
2:35 PM 53.6 °F - 21.2 °F 28% 29.85 in 10.0 mi SE 12.7 mph 18.4 mph N/A   Mostly Cloudy
2:55 PM 51.8 °F - 21.2 °F 30% 29.84 in 10.0 mi SE 8.1 mph - N/A   Mostly Cloudy
3:15 PM 51.8 °F - 23.0 °F 33% 29.82 in 10.0 mi SW 3.5 mph - N/A   Scattered Clouds
3:35 PM 53.6 °F - 26.6 °F 35% 29.82 in 10.0 mi SW 18.4 mph 25.3 mph N/A   Mostly Cloudy
3:55 PM 53.6 °F - 26.6 °F 35% 29.80 in 10.0 mi SSW 17.3 mph 23.0 mph N/A   Scattered Clouds
4:15 PM 53.6 °F - 26.6 °F 35% 29.80 in 10.0 mi SW 16.1 mph 25.3 mph N/A   Scattered Clouds
4:35 PM 55.4 °F - 23.0 °F 29% 29.81 in 10.0 mi SW 19.6 mph 26.5 mph N/A   Mostly Cloudy
4:55 PM 53.6 °F - 23.0 °F 30% 29.81 in 10.0 mi SSW 12.7 mph 18.4 mph N/A   Overcast
5:15 PM 53.6 °F - 21.2 °F 28% 29.82 in 10.0 mi SW 17.3 mph 24.2 mph N/A   Overcast
5:35 PM 53.6 °F - 21.2 °F 28% 29.83 in 10.0 mi SSE 10.4 mph 20.7 mph N/A   Overcast
5:55 PM 50.0 °F - 21.2 °F 32% 29.83 in 10.0 mi SSE 4.6 mph - N/A   Overcast
6:15 PM 48.2 °F - 19.4 °F 32% 29.85 in 10.0 mi SSE 11.5 mph - N/A   Mostly Cloudy
6:35 PM 50.0 °F - 26.6 °F 40% 29.85 in 10.0 mi SSW 16.1 mph 24.2 mph N/A   Mostly Cloudy
6:55 PM 51.8 °F - 30.2 °F 44% 29.86 in 10.0 mi South 24.2 mph 31.1 mph N/A   Overcast
7:15 PM 48.2 °F - 32.0 °F 54% 29.85 in 10.0 mi SSW 13.8 mph 26.5 mph N/A   Mostly Cloudy
7:35 PM 46.4 °F 41.1 °F 32.0 °F 57% 29.85 in 10.0 mi SSW 11.5 mph - N/A   Clear
7:55 PM 44.6 °F 40.7 °F 32.0 °F 61% 29.86 in 10.0 mi SSW 6.9 mph - N/A   Scattered Clouds
8:15 PM 46.4 °F 41.1 °F 30.2 °F 53% 29.86 in 10.0 mi South 11.5 mph - N/A   Clear
8:35 PM 44.6 °F 39.2 °F 32.0 °F 61% 29.86 in 10.0 mi SSE 10.4 mph - N/A   Clear
8:55 PM 42.8 °F 38.0 °F 33.8 °F 70% 29.85 in 10.0 mi SSE 8.1 mph - N/A   Clear
9:15 PM 41.0 °F 34.7 °F 33.8 °F 76% 29.85 in 10.0 mi SSE 10.4 mph - N/A   Mostly Cloudy
9:35 PM 42.8 °F 38.6 °F 32.0 °F 66% 29.86 in 10.0 mi South 6.9 mph - N/A   Overcast
9:55 PM 44.6 °F 38.1 °F 33.8 °F 66% 29.86 in 10.0 mi SSW 13.8 mph 21.9 mph N/A   Overcast
10:15 PM 44.6 °F 37.4 °F 33.8 °F 66% 29.88 in 10.0 mi SW 16.1 mph 21.9 mph N/A   Overcast
10:35 PM 41.0 °F 33.1 °F 33.8 °F 76% 29.90 in 5.0 mi WSW 15.0 mph 20.7 mph N/A   Drizzle
10:55 PM 37.4 °F 28.5 °F 35.6 °F 93% 29.91 in 3.0 mi West 15.0 mph 24.2 mph N/A   Overcast
11:15 PM 37.4 °F 28.2 °F 35.6 °F 93% 29.91 in 7.0 mi West 16.1 mph 20.7 mph 0.01 in   Overcast
11:35 PM 37.4 °F 30.8 °F 35.6 °F 93% 29.91 in 10.0 mi West 9.2 mph - 0.01 in   Overcast
11:55 PM 37.4 °F 33.8 °F 35.6 °F 93% 29.91 in 10.0 mi West 4.6 mph - 0.01 in   Overcast